星链-4706 (STARLINK-4706 )

导读

STARLINK-4706是美国太空探索技术公司(SpaceX)于2022年9月11日发射的星链(Starlink)低轨互联网卫星,属于星链v1.5批次,运行于近地轨道,轨道倾角约70度,近地点高度约570公里,远地点高度约574公里,绕行地球周期约96分钟,目前仍在正常工作,为全球互联网覆盖提供服务,支撑偏远地区网络接入,助力星链星座全球通信组网。

基本信息
目录编号:
53779
目录名称:
STARLINK-4706
国际标识:
2022-111G
轨道中心:
EARTH
卫星名称:
星链-4706
卫星全名:
星链-4706 (STARLINK-4706 )
卫星状态:
在轨 (已飞行1375 天)
发射日期:
2022-09-11 UTC
国别 :
美国 (US)
星等 :
--
轨道信息
数据来源 国际轨道数据 AOE轨道数据
星历时间 2026-06-17T02:41:48+0800
14小时前
查看轨道信息
2026-06-11T04:00:00+0800
6天前
查看轨道信息
半长轴 6917.904km 6917.883km
偏心率 0.0001079 0.0001018
轨道倾角 53.159° 53.162°
近地点辐角 79.366° 124.243°
升交点赤经 189.315° 216.041°
平近点角 280.745° 322.354°
近地点 539.02km 539.041km
远地点 540.514km 540.451km
周期 95.438分钟 95.438分钟
每日圈数 15.088323 15.088392
详细信息
固有亮度:
5
最大亮度:
2.5
卫星平台:
Starlink v1.5
覆盖范围:
全球
运营商:
太空探索技术公司
运营商所在国:
美国
制造商(研发单位):
太空探索技术公司
制造商所在国:
美国
使用方式:
暂无
卫星简介
星链(Starlink)计划是由太空探索技术公司(SpaceX)提出的一个巨型低轨卫星互联网星座项目,计划在2019年至2024年间在太空搭建由约1.2万颗卫星组成的“星链”网络,其中1584颗将部署在地球上空550千米处的近地轨道,并从2020年开始工作。该卫星仍在工作。
2D轨道图
3D轨道图
轨道高度分析图
轨道倾角分析图
轨道综合分析图
查看轨道综合分析图